User: anonymous   Login
Location: Unspecified
(43.4680°N, 87.1740°E)
Time: 03:02:17
(UTC+00:00)
Language:

Cosmos 1238 Rocket - Orbit

View from above orbital plane
View from above orbital plane
View from above satellite
View from above satellite

Ground track
Ground track

The orbit data is extracted from the following two-line orbital elements,

1 12139U 81003B   21174.78555061  .00002862  00000-0  13110-3 0  9997
2 12139  82.9491   3.4095 0457847 118.4242 246.3896 14.58629600 60543
Epoch (UTC): 23 June 2021 18:51:11
Eccentricity: 0.0457847
inclination: 82.9491°
perigee height: 373 km
apogee height: 1021 km
right ascension of ascending node: 3.4095°
argument of perigee: 118.4242°
revolutions per day: 14.58629600
mean anomaly at epoch: 246.3896°
orbit number at epoch: 6054

The dashed part of the orbit path shows where the satellite is in the earth's shadow,  

DLR